SDA-1673

导读

SDA_1673是美国太空发展局(SDA)于2025年10月15日发射的军用低轨道卫星,属于SDA“扩增作战部队太空架构”“1批次”部署任务,归属于传输层卫星星座。它将为美军作战部队提供低延迟、抗干扰的全球军事数据通信服务,支持星间激光通信,可协助美军实现数据中继与战场互联,增强全球军事响应能力,是美国构建低轨军用卫星网络的重要组成部分。

Basic Information
目录编号:
65983
目录名称:
SDA_1673
国际标识:
2025-230K
轨道中心:
EARTH
卫星名称:
SDA_1673
卫星全名:
SDA-1673
卫星状态:
在轨 (已飞行325 天)
发射日期:
2025-10-15 UTC
国别 :
美国 (US)
星等 :
--
Orbit Information
数据来源 国际轨道数据
星历时间: 2026-09-05T11:49:47+0800
13小时前
查看轨道信息
半长轴: 7333.991km
偏心率: 0.0001581
轨道倾角: 81.302°
近地点辐角 57.689°
升交点赤经 137.856°
平近点角 302.442°
近地点: 954.694km
远地点: 957.014km
周期: 104.177分钟
每日圈数: 13.82268
Detailed Information
使用方式:
暂无
2D Orbit Map
3D Orbit Map
Orbit Altitude Analysis Chart
Orbit Inclination Analysis Chart
Orbit Comprehensive Analysis Chart
View Comprehensive Chart
Conjunction Data List
Event ID Objects TCA Miss Dist (km) Collision Risk Probability Collision Risk Index (CRI) Action
CDM_260831-190501-702506-598323
SDA_1673 (65983)
2026-08-31T
19:05:16+0000
2.994 km
极远距离
1.25061E-6 低风险 0.37